SCP
0 0 0 0 0 0 0 0 0 0 0 0 0 0 0 0 0 0 0 0 0 0 0 0 0 0 0 0 0 0 0 0 0 0 0 0 0 0 0 0 0 0 0 0
0 0 0 0 0 0 0 0 0 0 0 0 0 0 0 0 0 0 0 0 0 0 0 0 0 0 0 0 0 0 0 0 0 0 0 0 0 0 0 0 0 0 0 0
0 0 0 0 0 0 0 0 0 0 0 0 0 0 0 0 0 0 0 0 0 0 0 0 0 0 0 0 0 0 0 0 0 0 0 0 0 0 0 0 0 0 0 0
0 0 0 0 0 0 0 0 0 0 0 0 0 0 0 0 0 0 0 0 0 0 0 0 0 0 0 0 0 0 0 0 0 0 0 0 0 0 0 0 0 0 0 0
0 0 0 0 0 0 0 0 0 0 0 0 0 0 0 0 0 0 0 0 0 0 0 0 0 0 0 0 0 0 0 0 0 0 0 0 0 0 0 0 0 0 0 0
0 0 0 0 0 0 0 0 0 0 0 0 0 0 0 0 0 0 0 0 0 0 0 0 0 0 0 0 0 0 0 0 0 0 0 0 0 0 0 0 0 -0 0 0
0 0 0 0 0 0 0 0 0 0 0 0 0 0 0 0 0 0 0 0 0 0 0 0 0 0 0 0 0 0 0 0 0 0 0 0 0 0 0 -0 0 0 -0 0
0 0 0 0 0 0 0 0 0 0 0 0 0 0 0 0 0 0 0 0 0 0 0 0 0 0 0 0 0 0 0 0 0 0 0 0 0 0 0 0 0 0 -0 0
0 0 0 0 0 0 0 0 0 0 0 0 0 0 0 0 0 0 0 0 0 0 0 0 0 0 0 0 0 0 0 0 0 0 0 0 0 0 0 0 0 0 0 0
0 0 0 0 0 0 0 0 0 0 0 0 0 0 0 0 0 0 0 0 0 0 0 0 0 0 0 0 0 0 0 0 0 0 0 0 0 0 0 0 0 0 0 0
0 0 0 0 0 0 0 0 0 0 0 0 0 0 0 0 0 0 0 0 0 0 0 0 0 0 0 0 0 0 0 0 0 0 0 0 0 0 0 0 0 0 0 0
0 0 0 0 0 0 0 0 0 0 0 0 0 0 0 0 0 0 0 0 0 0 0 0 0 0 0 0 0 0 0 0 0 0 0 0 0 0 0 0 0 0 0 0
0 0 0 0 0 0 0 0 0 0 0 0 0 0 0 0 0 0 0 0 0 0 0 0 0 0 0 0 0 0 0 0 0 0 0 0 0 0 0 0 0 0 0 0
0 0 0 0 0 0 0 0 0 0 0 0 0 0 0 0 0 0 0 0 0 0 0 0 0 0 0 0 0 0 0 0 0 0 0 0 0 0 0 0 0 0 0 0
0 0 0 0 0 0 0 0 0 0 0 0 0 0 0 0 0 0 0 0 0 0 0 0 0 0 0 0 0 0 0 0 0 0 0 0 0 0 0 0 0 0 0 0
0 0 0 0 0 0 0 0 0 0 0 0 0 0 0 0 0 0 0 0 0 0 0 0 0 0 0 0 0 0 0 0 0 0 0 0 0 0 0 0 0 0 0 0
0 0 0 0 0 0 0 0 0 0 0 0 0 0 0 0 0 0 0 0 0 0 0 0 0 0 0 0 0 0 0 0 0 0 0 0 0 0 0 0 0 0 0 0
0 0 0 0 0 0 0 0 0 0 0 0 0 0 0 0 0 0 0 0 0 0 0 0 0 0 0 0 0 0 0 0 0 0 0 0 0 0 0 0 0 0 0 0
0 0 0 0 0 0 0 0 0 0 0 0 0 0 0 0 0 0 0 0 0 0 0 0 0 0 0 0 0 0 0 0 0 0 0 0 0 0 0 0 0 0 0 0
0 0 0 0 0 0 0 0 0 0 0 0 0 0 0 0 0 0 0 0 0 0 0 0 0 0 0 0 0 0 0 0 0 0 0 0 0 0 0 0 0 0 0 0
0 0 0 0 0 0 0 0 0 0 0 0 0 0 0 0 0 0 0 0 0 0 0 0 0 0 0 0 0 0 0 0 0 0 0 0 0 0 0 0 0 0 0 0
0 0 0 0 0 0 0 0 0 0 0 0 0 0 0 0 0 0 0 0 0 0 0 0 0 0 0 0 0 0 0 0 0 0 0 0 0 0 0 0 0 0 0 0
0 0 0 0 0 0 0 0 0 0 0 0 0 0 0 0 0 0 0 0 0 0 0 0 0 0 0 0 0 0 0 0 0 0 0 0 0 0 0 0 0 0 0 0
0 0 0 0 0 0 0 0 0 0 0 0 0 0 0 0 0 0 0 0 0 0 0 0 0 0 0 0 0 0 0 0 0 0 0 0 0 0 0 0 0 0 0 0
0 0 0 0 0 0 0 0 0 0 0 0 0 0 0 0 0 0 0 0 0 0 0 0 0 0 0 0 0 0 0 0 0 0 0 0 0 0 0 0 0 0 0 0
0 0 0 0 0 0 0 0 0 0 0 0 0 0 0 0 0 0 0 0 0 0 0 0 0 0 0 0 0 0 0 0 0 0 0 0 0 0 0 0 0 0 0 0
0 0 0 0 0 0 0 0 0 0 0 0 0 0 0 0 0 0 0 0 0 0 0 0 0 0 0 0 0 0 0 0 0 0 0 0 0 0 0 0 0 0 0 0
Wind_Speed_500mb
5 6 6 9 26 34 24 13 21 16 19 28 32 23 31 22 16 11 4 1 3 6 11 15 21 28 34 35 36 37 37 33 25 23 21 24 26 24 20 16 17 20 23 21
1 4 1 8 13 40 36 9 7 8 11 8 31 38 26 25 20 12 5 1 4 7 12 16 19 22 26 31 36 37 37 32 30 28 25 23 26 27 24 19 18 24 27 24
8 4 5 12 21 28 19 10 25 18 12 11 12 21 38 32 23 18 13 8 6 5 5 9 14 20 24 27 33 38 33 30 31 29 25 24 26 27 25 20 19 25 30 30
5 6 6 11 3 19 21 25 13 5 15 21 26 25 32 29 32 25 19 16 14 15 13 7 3 8 15 22 27 34 33 30 31 30 25 23 25 25 26 21 21 24 30 33
10 7 8 6 10 16 17 16 31 27 15 21 50 37 17 28 29 30 28 25 23 22 25 26 19 13 7 4 14 24 30 30 29 28 26 23 24 24 25 21 22 25 31 36
6 12 19 10 9 24 9 6 25 40 24 33 47 15 8 39 37 36 33 33 34 34 34 33 37 35 23 14 6 12 19 25 29 30 26 22 22 24 20 20 21 24 34 37
9 6 13 12 14 27 13 12 19 53 53 62 24 12 61 52 45 43 41 39 37 37 39 42 42 40 40 36 22 8 6 17 24 29 27 24 23 24 20 22 22 23 31 34
5 7 15 21 23 20 10 8 26 52 64 59 34 69 73 61 57 52 48 43 38 37 39 39 39 37 40 41 40 33 15 4 18 26 28 26 25 25 26 28 26 33 29 31
15 11 1 45 9 20 27 31 30 55 67 70 81 84 76 68 59 52 47 43 37 33 33 34 34 34 34 37 35 35 33 18 5 20 29 29 28 28 29 29 30 37 34 28
10 8 5 44 12 25 27 37 41 53 77 74 90 88 77 68 61 54 45 39 31 26 25 28 29 31 32 31 31 30 29 27 19 8 21 28 30 32 32 31 34 35 41 37
2 4 10 16 20 37 31 39 50 61 76 89 96 84 77 68 58 50 41 32 25 19 20 22 24 26 27 27 25 24 25 25 24 20 10 21 29 31 37 38 35 36 41 42
8 28 13 30 39 42 50 54 64 79 83 90 90 85 74 64 52 44 36 28 19 13 12 15 18 23 26 28 28 25 22 21 20 19 17 14 21 30 35 38 42 42 42 48
10 55 18 46 49 51 55 59 70 78 88 90 79 77 68 61 48 37 28 18 10 6 12 15 19 24 30 35 36 35 30 25 22 19 18 17 15 23 30 35 41 48 48 45
42 48 30 54 45 50 54 65 72 79 82 80 76 64 56 49 42 31 19 10 1 7 15 22 25 29 35 38 41 39 37 33 29 26 22 20 19 19 22 32 41 44 50 50
53 26 44 53 54 57 61 68 73 76 72 67 58 53 44 36 27 20 12 7 10 19 26 30 31 34 37 36 37 39 39 38 34 33 30 28 25 24 23 25 30 43 49 56
38 42 49 55 63 66 71 76 82 77 70 66 59 48 38 29 20 14 13 15 22 29 33 35 36 38 39 40 38 38 37 37 36 34 34 35 33 32 29 27 28 30 37 48
56 43 56 64 70 73 76 76 76 73 65 56 46 36 26 18 13 16 20 25 31 38 40 41 41 42 43 46 45 43 41 39 38 38 36 35 38 40 39 34 33 32 31 31
43 50 51 59 71 74 68 64 63 58 48 40 31 22 22 22 21 24 26 29 36 40 41 42 45 46 45 46 50 48 47 45 44 44 44 41 37 39 45 47 45 41 37 33
34 49 47 56 63 64 61 57 49 42 36 28 25 24 21 19 24 30 33 34 36 39 39 40 42 44 43 43 47 46 45 43 44 44 44 45 45 42 42 49 53 51 48 44
44 43 49 56 53 50 51 45 38 32 27 22 18 18 21 25 29 31 30 30 31 31 30 31 31 32 33 34 39 42 46 45 45 45 46 46 47 49 48 47 51 57 59 55
48 50 52 52 51 46 40 35 29 23 18 18 20 22 24 24 26 26 23 21 24 26 25 26 28 28 28 29 29 31 37 42 44 47 50 49 48 47 49 52 54 56 59 62
43 43 43 40 35 32 28 25 25 24 23 21 18 17 19 22 22 23 24 24 23 25 25 26 27 27 28 28 30 32 33 36 40 43 47 52 57 60 59 57 55 56 59 63
38 37 35 34 31 28 27 24 22 19 16 15 17 21 23 25 26 24 27 28 26 28 26 27 29 30 30 31 34 36 37 38 41 43 45 48 53 58 63 68 69 67 65 63
35 34 31 29 26 22 19 17 15 15 16 19 23 26 28 28 29 30 26 25 29 29 29 30 30 32 34 36 37 37 39 43 44 46 48 50 51 54 58 63 69 71 65 62
32 31 28 25 21 18 15 14 15 16 19 21 25 28 31 31 26 28 31 29 30 33 31 31 32 34 35 37 39 41 42 44 47 50 51 53 56 58 60 62 65 67 71 75
29 27 25 23 19 17 15 14 16 17 18 19 22 25 27 31 35 33 34 33 32 35 36 35 34 35 36 38 40 42 45 47 49 52 55 58 60 62 64 65 67 69 69 68
23 21 19 16 13 10 9 9 11 15 17 18 21 24 28 32 34 36 38 35 37 37 37 36 36 38 39 41 43 45 47 48 49 53 57 60 62 65 67 69 71 71 71 71
Wind_Direction_500mb
349 329 128 171 190 193 204 171 196 190 188 198 195 190 183 166 165 168 163 222 291 270 257 253 247 244 244 239 236 239 240 237 235 236 231 223 218 221 227 227 223 212 204 196
99 345 323 207 222 206 209 193 69 105 248 210 181 177 174 171 168 160 149 52 307 288 275 267 260 253 250 244 238 234 231 232 229 233 235 229 215 221 228 236 237 214 204 203
181 45 1 295 208 193 196 197 174 184 206 140 145 180 176 169 168 158 143 118 77 27 324 279 264 257 249 244 233 231 231 227 225 227 232 235 218 225 230 235 232 214 207 199
133 102 180 251 274 186 182 206 190 125 162 168 166 161 168 173 164 154 140 120 96 73 55 38 336 274 251 236 229 222 216 218 222 223 225 234 225 224 235 235 238 220 203 191
163 191 309 234 190 157 168 229 201 201 152 135 131 121 123 164 162 147 134 116 99 84 71 62 59 58 59 186 207 214 215 212 215 220 222 227 232 224 240 229 244 217 198 186
137 155 206 232 200 160 141 284 180 189 162 149 146 155 202 163 157 143 130 113 100 90 81 72 63 56 60 73 133 198 216 219 215 209 214 228 230 227 233 234 212 221 196 190
176 194 279 228 149 157 125 232 162 183 161 161 174 189 160 158 148 139 130 116 104 93 81 71 63 56 54 53 54 59 216 218 215 217 209 212 225 230 225 209 212 218 197 193
116 106 256 164 127 168 188 143 162 170 169 164 152 149 151 152 145 139 130 118 106 94 83 73 65 56 52 47 42 42 42 226 219 216 218 220 218 217 230 216 213 207 223 208
181 199 233 177 148 168 162 154 160 167 167 162 150 150 152 148 145 138 130 120 106 91 81 72 63 55 49 46 39 32 30 21 261 235 227 223 217 214 216 222 219 211 226 215
113 206 191 181 187 163 166 167 168 172 169 165 153 153 152 149 146 141 132 119 105 92 74 60 46 39 39 36 30 27 23 24 21 281 242 241 238 219 209 224 227 223 224 235
92 33 94 187 192 186 178 171 160 160 162 162 155 155 153 150 148 141 131 123 110 92 67 47 30 18 13 11 11 9 9 10 13 9 298 247 240 241 237 223 220 231 238 242
198 177 155 192 183 175 167 163 163 159 157 159 160 156 154 149 147 142 138 130 122 97 58 38 12 352 342 339 336 337 339 346 353 355 351 311 266 250 244 240 237 229 229 241
161 162 166 170 167 169 162 161 163 164 163 160 159 158 157 151 149 150 146 140 128 54 10 2 347 331 321 315 313 313 313 313 317 326 329 334 310 270 254 248 243 241 246 245
156 150 126 157 162 167 169 164 168 165 162 160 158 158 159 160 158 159 160 165 207 331 326 326 322 312 305 301 299 298 296 297 294 296 303 307 310 304 283 258 247 247 247 252
151 163 161 165 161 163 166 163 161 160 159 155 156 159 162 164 170 168 193 243 297 307 310 310 306 300 296 296 297 297 295 293 290 282 280 284 290 292 293 283 268 253 246 244
143 146 152 159 158 160 164 166 165 160 161 159 161 164 167 175 188 208 243 274 291 298 300 299 296 292 290 290 289 290 294 294 292 287 278 272 274 280 283 286 283 277 260 249
132 130 149 154 160 164 169 170 169 163 163 166 169 171 176 188 222 260 278 290 296 296 295 294 290 288 291 293 291 285 283 286 288 288 286 279 271 269 273 275 274 277 277 267
166 163 167 167 167 167 166 167 167 166 169 170 175 191 213 229 252 267 276 284 286 287 289 289 291 292 291 289 287 285 282 280 279 279 280 280 277 271 268 270 270 272 275 274
156 162 164 168 168 168 166 166 168 170 173 179 190 206 225 244 261 271 278 280 281 284 288 290 290 290 289 286 285 285 285 282 278 276 275 276 276 274 270 270 271 271 271 271
144 149 153 155 158 165 164 165 170 177 187 201 218 239 253 260 265 271 277 282 284 289 292 295 296 296 295 291 288 287 287 286 283 281 279 277 274 273 272 269 269 272 272 269
139 145 150 155 156 158 163 168 176 185 203 223 236 245 254 261 267 272 275 275 281 283 286 295 299 304 308 307 304 297 291 289 287 284 281 280 281 281 278 274 270 268 271 274
136 140 143 147 153 159 166 178 188 198 204 211 222 239 253 259 263 271 274 273 274 275 285 289 291 298 303 310 313 311 306 300 295 290 285 281 278 276 276 277 278 276 272 270
143 147 151 155 160 167 173 178 186 194 204 221 239 249 254 260 266 266 264 268 270 277 286 291 298 306 309 311 312 313 313 311 306 301 295 289 285 281 278 276 272 272 272 274
147 146 150 153 157 163 174 185 201 219 234 245 253 258 260 264 269 268 264 262 275 281 287 293 299 303 308 312 313 314 316 315 312 308 303 298 294 288 283 279 276 271 269 272
145 148 152 154 162 173 192 213 229 239 245 249 255 261 267 268 266 264 269 273 277 282 288 292 297 300 306 308 310 313 316 317 316 313 309 304 301 297 293 288 282 277 273 272
146 148 152 157 165 170 184 205 225 233 239 244 256 262 268 274 279 279 277 281 285 287 291 293 296 299 302 306 311 314 315 316 317 315 311 307 304 301 297 292 287 283 278 273
151 153 157 166 175 193 208 225 254 266 261 248 241 255 262 267 272 278 281 282 284 286 289 294 299 301 307 312 314 315 314 316 317 315 312 308 305 302 300 296 291 285 278 272
Wind_Speed_850mb
5 6 6 9 26 34 24 13 21 16 19 28 32 23 31 22 16 11 4 1 3 6 11 15 21 28 34 35 36 37 37 33 25 23 21 24 26 24 20 16 17 20 23 21
1 4 1 8 13 40 36 9 7 8 11 8 31 38 26 25 20 12 5 1 4 7 12 16 19 22 26 31 36 37 37 32 30 28 25 23 26 27 24 19 18 24 27 24
8 4 5 12 21 28 19 10 25 18 12 11 12 21 38 32 23 18 13 8 6 5 5 9 14 20 24 27 33 38 33 30 31 29 25 24 26 27 25 20 19 25 30 30
5 6 6 11 3 19 21 25 13 5 15 21 26 25 32 29 32 25 19 16 14 15 13 7 3 8 15 22 27 34 33 30 31 30 25 23 25 25 26 21 21 24 30 33
10 7 8 6 10 16 17 16 31 27 15 21 50 37 17 28 29 30 28 25 23 22 25 26 19 13 7 4 14 24 30 30 29 28 26 23 24 24 25 21 22 25 31 36
6 12 19 10 9 24 9 6 25 40 24 33 47 15 8 39 37 36 33 33 34 34 34 33 37 35 23 14 6 12 19 25 29 30 26 22 22 24 20 20 21 24 34 37
9 6 13 12 14 27 13 12 19 53 53 62 24 12 61 52 45 43 41 39 37 37 39 42 42 40 40 36 22 8 6 17 24 29 27 24 23 24 20 22 22 23 31 34
5 7 15 21 23 20 10 8 26 52 64 59 34 69 73 61 57 52 48 43 38 37 39 39 39 37 40 41 40 33 15 4 18 26 28 26 25 25 26 28 26 33 29 31
15 11 1 45 9 20 27 31 30 55 67 70 81 84 76 68 59 52 47 43 37 33 33 34 34 34 34 37 35 35 33 18 5 20 29 29 28 28 29 29 30 37 34 28
10 8 5 44 12 25 27 37 41 53 77 74 90 88 77 68 61 54 45 39 31 26 25 28 29 31 32 31 31 30 29 27 19 8 21 28 30 32 32 31 34 35 41 37
2 4 10 16 20 37 31 39 50 61 76 89 96 84 77 68 58 50 41 32 25 19 20 22 24 26 27 27 25 24 25 25 24 20 10 21 29 31 37 38 35 36 41 42
8 28 13 30 39 42 50 54 64 79 83 90 90 85 74 64 52 44 36 28 19 13 12 15 18 23 26 28 28 25 22 21 20 19 17 14 21 30 35 38 42 42 42 48
10 55 18 46 49 51 55 59 70 78 88 90 79 77 68 61 48 37 28 18 10 6 12 15 19 24 30 35 36 35 30 25 22 19 18 17 15 23 30 35 41 48 48 45
42 48 30 54 45 50 54 65 72 79 82 80 76 64 56 49 42 31 19 10 1 7 15 22 25 29 35 38 41 39 37 33 29 26 22 20 19 19 22 32 41 44 50 50
53 26 44 53 54 57 61 68 73 76 72 67 58 53 44 36 27 20 12 7 10 19 26 30 31 34 37 36 37 39 39 38 34 33 30 28 25 24 23 25 30 43 49 56
38 42 49 55 63 66 71 76 82 77 70 66 59 48 38 29 20 14 13 15 22 29 33 35 36 38 39 40 38 38 37 37 36 34 34 35 33 32 29 27 28 30 37 48
56 43 56 64 70 73 76 76 76 73 65 56 46 36 26 18 13 16 20 25 31 38 40 41 41 42 43 46 45 43 41 39 38 38 36 35 38 40 39 34 33 32 31 31
43 50 51 59 71 74 68 64 63 58 48 40 31 22 22 22 21 24 26 29 36 40 41 42 45 46 45 46 50 48 47 45 44 44 44 41 37 39 45 47 45 41 37 33
34 49 47 56 63 64 61 57 49 42 36 28 25 24 21 19 24 30 33 34 36 39 39 40 42 44 43 43 47 46 45 43 44 44 44 45 45 42 42 49 53 51 48 44
44 43 49 56 53 50 51 45 38 32 27 22 18 18 21 25 29 31 30 30 31 31 30 31 31 32 33 34 39 42 46 45 45 45 46 46 47 49 48 47 51 57 59 55
48 50 52 52 51 46 40 35 29 23 18 18 20 22 24 24 26 26 23 21 24 26 25 26 28 28 28 29 29 31 37 42 44 47 50 49 48 47 49 52 54 56 59 62
43 43 43 40 35 32 28 25 25 24 23 21 18 17 19 22 22 23 24 24 23 25 25 26 27 27 28 28 30 32 33 36 40 43 47 52 57 60 59 57 55 56 59 63
38 37 35 34 31 28 27 24 22 19 16 15 17 21 23 25 26 24 27 28 26 28 26 27 29 30 30 31 34 36 37 38 41 43 45 48 53 58 63 68 69 67 65 63
35 34 31 29 26 22 19 17 15 15 16 19 23 26 28 28 29 30 26 25 29 29 29 30 30 32 34 36 37 37 39 43 44 46 48 50 51 54 58 63 69 71 65 62
32 31 28 25 21 18 15 14 15 16 19 21 25 28 31 31 26 28 31 29 30 33 31 31 32 34 35 37 39 41 42 44 47 50 51 53 56 58 60 62 65 67 71 75
29 27 25 23 19 17 15 14 16 17 18 19 22 25 27 31 35 33 34 33 32 35 36 35 34 35 36 38 40 42 45 47 49 52 55 58 60 62 64 65 67 69 69 68
23 21 19 16 13 10 9 9 11 15 17 18 21 24 28 32 34 36 38 35 37 37 37 36 36 38 39 41 43 45 47 48 49 53 57 60 62 65 67 69 71 71 71 71
Wind_Direction_850mb
349 329 128 171 190 193 204 171 196 190 188 198 195 190 183 166 165 168 163 222 291 270 257 253 247 244 244 239 236 239 240 237 235 236 231 223 218 221 227 227 223 212 204 196
99 345 323 207 222 206 209 193 69 105 248 210 181 177 174 171 168 160 149 52 307 288 275 267 260 253 250 244 238 234 231 232 229 233 235 229 215 221 228 236 237 214 204 203
181 45 1 295 208 193 196 197 174 184 206 140 145 180 176 169 168 158 143 118 77 27 324 279 264 257 249 244 233 231 231 227 225 227 232 235 218 225 230 235 232 214 207 199
133 102 180 251 274 186 182 206 190 125 162 168 166 161 168 173 164 154 140 120 96 73 55 38 336 274 251 236 229 222 216 218 222 223 225 234 225 224 235 235 238 220 203 191
163 191 309 234 190 157 168 229 201 201 152 135 131 121 123 164 162 147 134 116 99 84 71 62 59 58 59 186 207 214 215 212 215 220 222 227 232 224 240 229 244 217 198 186
137 155 206 232 200 160 141 284 180 189 162 149 146 155 202 163 157 143 130 113 100 90 81 72 63 56 60 73 133 198 216 219 215 209 214 228 230 227 233 234 212 221 196 190
176 194 279 228 149 157 125 232 162 183 161 161 174 189 160 158 148 139 130 116 104 93 81 71 63 56 54 53 54 59 216 218 215 217 209 212 225 230 225 209 212 218 197 193
116 106 256 164 127 168 188 143 162 170 169 164 152 149 151 152 145 139 130 118 106 94 83 73 65 56 52 47 42 42 42 226 219 216 218 220 218 217 230 216 213 207 223 208
181 199 233 177 148 168 162 154 160 167 167 162 150 150 152 148 145 138 130 120 106 91 81 72 63 55 49 46 39 32 30 21 261 235 227 223 217 214 216 222 219 211 226 215
113 206 191 181 187 163 166 167 168 172 169 165 153 153 152 149 146 141 132 119 105 92 74 60 46 39 39 36 30 27 23 24 21 281 242 241 238 219 209 224 227 223 224 235
92 33 94 187 192 186 178 171 160 160 162 162 155 155 153 150 148 141 131 123 110 92 67 47 30 18 13 11 11 9 9 10 13 9 298 247 240 241 237 223 220 231 238 242
198 177 155 192 183 175 167 163 163 159 157 159 160 156 154 149 147 142 138 130 122 97 58 38 12 352 342 339 336 337 339 346 353 355 351 311 266 250 244 240 237 229 229 241
161 162 166 170 167 169 162 161 163 164 163 160 159 158 157 151 149 150 146 140 128 54 10 2 347 331 321 315 313 313 313 313 317 326 329 334 310 270 254 248 243 241 246 245
156 150 126 157 162 167 169 164 168 165 162 160 158 158 159 160 158 159 160 165 207 331 326 326 322 312 305 301 299 298 296 297 294 296 303 307 310 304 283 258 247 247 247 252
151 163 161 165 161 163 166 163 161 160 159 155 156 159 162 164 170 168 193 243 297 307 310 310 306 300 296 296 297 297 295 293 290 282 280 284 290 292 293 283 268 253 246 244
143 146 152 159 158 160 164 166 165 160 161 159 161 164 167 175 188 208 243 274 291 298 300 299 296 292 290 290 289 290 294 294 292 287 278 272 274 280 283 286 283 277 260 249
132 130 149 154 160 164 169 170 169 163 163 166 169 171 176 188 222 260 278 290 296 296 295 294 290 288 291 293 291 285 283 286 288 288 286 279 271 269 273 275 274 277 277 267
166 163 167 167 167 167 166 167 167 166 169 170 175 191 213 229 252 267 276 284 286 287 289 289 291 292 291 289 287 285 282 280 279 279 280 280 277 271 268 270 270 272 275 274
156 162 164 168 168 168 166 166 168 170 173 179 190 206 225 244 261 271 278 280 281 284 288 290 290 290 289 286 285 285 285 282 278 276 275 276 276 274 270 270 271 271 271 271
144 149 153 155 158 165 164 165 170 177 187 201 218 239 253 260 265 271 277 282 284 289 292 295 296 296 295 291 288 287 287 286 283 281 279 277 274 273 272 269 269 272 272 269
139 145 150 155 156 158 163 168 176 185 203 223 236 245 254 261 267 272 275 275 281 283 286 295 299 304 308 307 304 297 291 289 287 284 281 280 281 281 278 274 270 268 271 274
136 140 143 147 153 159 166 178 188 198 204 211 222 239 253 259 263 271 274 273 274 275 285 289 291 298 303 310 313 311 306 300 295 290 285 281 278 276 276 277 278 276 272 270
143 147 151 155 160 167 173 178 186 194 204 221 239 249 254 260 266 266 264 268 270 277 286 291 298 306 309 311 312 313 313 311 306 301 295 289 285 281 278 276 272 272 272 274
147 146 150 153 157 163 174 185 201 219 234 245 253 258 260 264 269 268 264 262 275 281 287 293 299 303 308 312 313 314 316 315 312 308 303 298 294 288 283 279 276 271 269 272
145 148 152 154 162 173 192 213 229 239 245 249 255 261 267 268 266 264 269 273 277 282 288 292 297 300 306 308 310 313 316 317 316 313 309 304 301 297 293 288 282 277 273 272
146 148 152 157 165 170 184 205 225 233 239 244 256 262 268 274 279 279 277 281 285 287 291 293 296 299 302 306 311 314 315 316 317 315 311 307 304 301 297 292 287 283 278 273
151 153 157 166 175 193 208 225 254 266 261 248 241 255 262 267 272 278 281 282 284 286 289 294 299 301 307 312 314 315 314 316 317 315 312 308 305 302 300 296 291 285 278 272